Hondo, TX

12:35 AM CDT on August 31, 2016 (GMT -0500)
Hondo Municipal

Weather History for KHDO - April, 2014

Change the Weather History Date:

Tuesday, April 22, 2014

  Actual Average Record
Temperature  
Mean Temperature 77 °F -  
Max Temperature 95 °F 79 °F 98 °F (2009)
Min Temperature 61 °F 57 °F 42 °F (1998)
Cooling Degree Days 12    
Growing Degree Days 27 (Base 50)    
Moisture  
Dew Point 55 °F    
Average Humidity 46    
Maximum Humidity 75    
Minimum Humidity 22    
Precipitation  
Precipitation 0.00 in - - ()
Sea Level Pressure  
Sea Level Pressure 29.96 in    
Wind  
Wind Speed 9 mph (ENE)    
Max Wind Speed 16 mph    
Max Gust Speed 23 mph    
Visibility 10 miles    
Events      
Averages and records for this station are not official NWS values.
T = Trace of Precipitation, MM = Missing Value Source: NWS Daily Summary

Daily Weather History Graph

Daily Weather History Graph

Search for Another Location

Airport or City:

Trip Planner

Search our weather history database for the weather conditions in past years. The results will help you decide how hot, cold, wet, or windy it might be!

Date:

Astronomy

Apr. 22, 2014 Rise Set
Actual Time 7:03 AM CDT 8:07 PM CDT
Civil Twilight 6:38 AM CDT 8:32 PM CDT
Nautical Twilight 6:09 AM CDT 9:01 PM CDT
Astronomical Twilight 5:39 AM CDT 9:31 PM CDT
Moon 2:21 AM CDT (4/22) 1:41 PM CDT (4/22)
Length of Visible Light 13h 53m
Length of Day
13h 04m
Last Quarter, 46% of the Moon is Illuminated
Apr 22
Last Quarter
Apr 29
New
May 6
First Quarter
May 14
Full
May 21
Last Quarter

Hourly Weather History & Observations

Time (CDT) Temp. Heat Index Dew Point Humidity Pressure Visibility Wind Dir Wind Speed Gust Speed Precip Events Conditions
12:51 AM 75.2 °F - 62.6 °F 65% 30.09 in 10.0 mi North 16.1 mph 23.0 mph N/A   Mostly Cloudy
1:51 AM 70.0 °F - 55.9 °F 61% 30.01 in 10.0 mi NNW 6.9 mph - N/A   Clear
2:51 AM 64.4 °F - 53.6 °F 68% 29.99 in 10.0 mi SSW 9.2 mph - N/A   Clear
3:51 AM 68.0 °F - 57.0 °F 68% 29.91 in 10.0 mi SSW 6.9 mph - N/A   Clear
4:51 AM 66.9 °F - 53.1 °F 61% 29.96 in 10.0 mi NE 6.9 mph - N/A   Clear
5:51 AM 64.0 °F - 53.1 °F 67% 29.99 in 10.0 mi Calm Calm - N/A   Clear
6:51 AM 61.0 °F - 53.1 °F 75% 30.00 in 10.0 mi North 9.2 mph - N/A   Clear
7:51 AM 64.9 °F - 57.0 °F 75% 30.02 in 10.0 mi North 8.1 mph - N/A   Clear
8:51 AM 73.9 °F - 57.0 °F 55% 30.03 in 10.0 mi North 8.1 mph - N/A   Clear
9:51 AM 79.0 °F - 60.1 °F 52% 30.03 in 10.0 mi North - - N/A   Clear
10:51 AM 82.9 °F 82.8 °F 59.0 °F 44% 30.02 in 10.0 mi NE 10.4 mph - N/A   Clear
11:51 AM 87.1 °F 85.9 °F 57.0 °F 36% 30.01 in 10.0 mi ENE 6.9 mph 18.4 mph N/A   Clear
12:51 PM 89.1 °F 87.3 °F 55.9 °F 32% 29.99 in 10.0 mi East 8.1 mph - N/A   Clear
1:51 PM 90.0 °F 88.1 °F 55.9 °F 31% 29.97 in 10.0 mi ESE 10.4 mph - N/A   Clear
2:51 PM 91.0 °F 88.9 °F 55.0 °F 29% 29.94 in 10.0 mi ENE 10.4 mph - N/A   Partly Cloudy
3:51 PM 93.0 °F 90.6 °F 53.1 °F 26% 29.91 in 10.0 mi Variable 4.6 mph - N/A   Clear
4:51 PM 93.2 °F - 51.8 °F 24% 29.92 in 10.0 mi Variable 3.5 mph - N/A   Clear
5:51 PM 93.9 °F - 50.0 °F 22% 29.86 in 10.0 mi ENE 9.2 mph - N/A   Clear
6:51 PM 91.0 °F - 48.9 °F 23% 29.85 in 10.0 mi ESE 10.4 mph - N/A   Clear
7:51 PM 86.0 °F - 50.0 °F 29% 29.86 in 10.0 mi East 8.1 mph - N/A   Clear
8:51 PM 82.9 °F 81.9 °F 54.0 °F 37% 29.88 in 10.0 mi ESE 11.5 mph - N/A   Clear
9:51 PM 79.0 °F - 53.1 °F 40% 29.90 in 10.0 mi ESE 9.2 mph - N/A   Clear
10:51 PM 77.0 °F - 54.0 °F 45% 29.91 in 10.0 mi East 9.2 mph - N/A   Clear
11:51 PM 73.9 °F - 54.0 °F 50% 29.92 in 10.0 mi East 6.9 mph - N/A   Clear